Showing default

YAOGAN-43 02A, 60945

Orbit data source: Space-Track

YAOGAN-43 02A, 60945 is a payload satellite owned by PLA GAD (CN) in LEO that was launched on Tue, 03 Sep 2024 UTC via a CHANG ZHENG 4B launch vehicle from the Xichang Space Center, China (XSC). Payload-class satellites include a variety of spacecraft equipped with specific instruments for various scientific and technological missions. These include communications satellites like Starlink; space stations such as the ISS; scientific satellites like the Hubble; Earth observation satellites from companies like Planet Labs, Umbra, and HawkEye 360; GPS; miniature CubeSats for education and research; and military/defense satellites.

Loading next visibility...
Identifier
60945, 2024-156A
Orbit
LEO
Country
Flag of CNCN / PRC
Related business
Manufacturer
SAST
Mission
Operational Defense Communications
Bus & Motor
Unknown
Mass
~300 kg wet, ~300 kg dry
Launch date (UTC)
2024-09-03 (2 years ago)
Launch vehicle
CHANG ZHENG 4B
Launch site
Xichang Space Center, China (XSC)
Object type
Payload
Rocket body
Debris
Shape & HBR
Box + 2 Pan, 2.5 m
Radar Cross Section
11.063 m², Large (>1 m²)

Expand to show TLE details & history
Last TLE update: 5 hours ago

TLE from 5 hours ago
0 YAOGAN-43 02A
1 60945U 24156A   26126.85046825  .00036453  00000-0  71537-3 0  9994
2 60945  34.9960  62.7345 0005232 264.9953  95.0172 15.46290008 93555
Epoch: 2026-05-06T20:24Z
TLE epoch observation values (Epoch: 2026-05-06T20:24:40.456Z)
Latitude
-0.00001°
Longitude
-108.13912°
Altitude
426.799 km
Speed
7.658 km/s
True Right ascension
04h 10m 56s
True Declination
0° 00' 00"
Sunlit
Object was in daylight at epoch
Visualization orbit readout
Latitude
Unknown
Longitude
Unknown
Altitude
Unknown
Speed
Unknown
Apparent Right ascension
Unknown
Apparent Declination
Unknown
Sunlit
N/A
Visualization observer readout
Local Sidereal Time
09:07:44
Azimuth
Unknown
Elevation
Unknown
Doppler factor
Unknown
Orbital elements
Apogee altitude
434.437 km
Perigee altitude
427.312 km
Semi-major axis
6,809.011 km
Eccentricity
0.00052
Inclination
34.996°
RAAN
62.7345°
Arg. of periapsis
264.9953°
True anomaly
95.07692°
Mean anomaly
95.0172°
Eccentric anomaly
95.04706°
Mean motion
3.86293 °/min
Orbital period
93.19 mins
BSTAR
0.00071537
Loading maneuver chart data...
Computing Atmospheric mass density...
Loading historical data...
Loading historical data...
Loading historical data...
Loading historical data...
Loading historical data...
Loading historical data...
Loading historical data...

Documentation

Showing up to 5 results
|